Showing default

ICEYE-X76, 68502

Orbit data source: Space-Track

ICEYE-X76, 68502 is a payload satellite owned by ICEYE (PL) in SSO that was launched on Mon, 30 Mar 2026 UTC via an FALCON 9 launch vehicle from the Air Force Western Test Range (AFWTR). Payload-class satellites include a variety of spacecraft equipped with specific instruments for various scientific and technological missions. These include communications satellites like Starlink; space stations such as the ISS; scientific satellites like the Hubble; Earth observation satellites from companies like Planet Labs, Umbra, and HawkEye 360; GPS; miniature CubeSats for education and research; and military/defense satellites.

Loading next visibility...
Identifier
68502, 2026-067CQ
Orbit
SSO
Country
Flag of PLPL / POL
Related business
Manufacturer
ICEYE
Mission
Operational Commercial Radar Imaging
Bus & Motor
ICEYE, Unknown motor
Mass
120 kg wet, 120 kg dry
Launch date (UTC)
2026-03-30 (5 months ago)
Launch vehicle
FALCON 9
Launch site
Air Force Western Test Range (AFWTR)
Object type
Payload
Rocket body
Debris
Shape & HBR
Box + 1 Pan, 2.4 m
Radar Cross Section
0.776 m², Medium (>0.1 m² and < 1m²)

Expand to show TLE details & history
Last TLE update: 19 hours ago

TLE from 19 hours ago
0 ICEYE-X76
1 68502U 26067CQ  26236.13900616  .00000678  00000-0  72740-4 0  9992
2 68502  97.7684 193.3886 0003175 119.8956 240.2579 14.91815408 21853
Epoch: 2026-08-24T03:20Z
TLE epoch observation values (Epoch: 2026-08-24T03:20:10.132Z)
Latitude
0.00004°
Longitude
170.92138°
Altitude
596.415 km
Speed
7.561 km/s
True Right ascension
12h 53m 33s
True Declination
0° 00' 00"
Sunlit
Object was in daylight at epoch
Visualization orbit readout
Latitude
Unknown
Longitude
Unknown
Altitude
Unknown
Speed
Unknown
Apparent Right ascension
Unknown
Apparent Declination
Unknown
Sunlit
N/A
Visualization observer readout
Local Sidereal Time
13:53:18
Azimuth
Unknown
Elevation
Unknown
Doppler factor
Unknown
Orbital elements
Apogee altitude
591.506 km
Perigee altitude
587.082 km
Semi-major axis
6,967.431 km
Eccentricity
0.00032
Inclination
97.7684°
RAAN
193.3886°
Arg. of periapsis
119.8956°
True anomaly
240.22632°
Mean anomaly
240.2579°
Eccentric anomaly
240.24211°
Mean motion
3.73194 °/min
Orbital period
96.46 mins
BSTAR
0.00007274
Loading maneuver chart data...
Computing Atmospheric mass density...
Loading historical data...
Loading historical data...
Loading historical data...
Loading historical data...
Loading historical data...
Loading historical data...
Loading historical data...

Documentation

Showing up to 5 results
|